GW2751 Weather Reports


Display with metric or nautical units.
time (UTC)temp
F
wind
direction
speed
MPH
gust
MPH
rain 1hr
in
rain 24hr
in
rain mn
in
humidity
%
barometer
mb
20260508111603 34 0 0.0 1.0 0.00 0.00 0.00 88 1017.4
20260508110037 32 0 0.0 1.0 0.00 0.00 0.00 88 1017.3
20260508104539 32 206 0.0 1.0 0.00 0.00 0.00 87 1017.1
20260508103039 32 0 0.0 2.0 0.00 0.00 0.00 87 1017.0
20260508101541 32 0 0.0 0.0 0.00 0.00 0.00 86 1016.9
20260508100039 32 220 0.0 2.0 0.00 0.00 0.00 86 1016.7
20260508094538 32 0 0.0 1.0 0.00 0.01 0.00 85 1016.6
20260508093044 32 0 0.0 0.0 0.00 0.01 0.00 85 1016.5
20260508091547 32 0 0.0 1.0 0.00 0.01 0.00 84 1016.5
20260508090045 33 0 0.0 2.0 0.00 0.01 0.00 84 1016.2
20260508084538 33 232 0.0 2.0 0.00 0.01 0.00 83 1016.2
20260508083053 33 0 0.0 0.0 0.00 0.01 0.00 82 1016.0
20260508081535 34 0 0.0 1.0 0.00 0.01 0.00 81 1016.0
20260508080039 34 0 0.0 0.0 0.00 0.01 0.00 80 1016.1
20260508074546 34 0 0.0 3.0 0.00 0.01 0.00 79 1016.1
20260508073037 35 0 0.0 2.0 0.00 0.01 0.00 78 1016.0
20260508071541 35 0 0.0 2.0 0.00 0.01 0.00 77 1016.1
20260508070039 36 0 0.0 3.0 0.00 0.01 0.00 76 1016.1
20260508064540 37 0 0.0 3.0 0.00 0.02 0.00 75 1016.0
20260508063038 38 226 1.0 3.0 0.00 0.02 0.00 74 1016.2
20260508061537 39 0 0.0 3.0 0.00 0.02 0.00 72 1016.2
20260508060034 40 0 0.0 0.0 0.00 0.02 0.00 70 1016.4
20260508054543 41 0 0.0 1.0 0.00 0.02 0.00 69 1016.3
20260508053046 42 0 0.0 3.0 0.00 0.02 0.00 64 1016.2
20260508051540 42 0 0.0 5.0 0.00 0.02 0.00 64 1016.0
20260508050038 42 301 1.0 4.0 0.00 0.02 0.00 64 1016.0
20260508044536 43 295 0.0 3.0 0.00 0.03 0.00 64 1015.7
20260508043043 43 0 0.0 7.0 0.00 0.03 0.00 64 1015.7
20260508041542 43 315 1.0 4.0 0.00 0.03 0.00 65 1015.7
20260508040040 44 286 1.0 4.0 0.00 0.03 0.00 66 1015.7
20260508034538 44 0 0.0 4.0 0.00 0.04 0.03 66 1015.6
20260508033038 45 239 1.0 7.0 0.00 0.04 0.03 65 1015.5
20260508031543 45 278 3.0 7.0 0.00 0.04 0.03 67 1015.5
20260508030045 45 273 3.0 6.0 0.00 0.04 0.03 67 1015.4
20260508024540 45 305 2.0 6.0 0.00 0.09 0.03 68 1015.2
20260508023037 45 289 1.0 6.0 0.00 0.09 0.03 69 1015.1
20260508021548 46 259 2.0 6.0 0.00 0.09 0.03 69 1014.9
20260508020035 46 276 3.0 9.0 0.00 0.09 0.03 69 1014.7
20260508014537 46 270 1.0 6.0 0.00 0.13 0.03 69 1014.6
20260508013043 46 297 2.0 6.0 0.00 0.13 0.03 68 1014.5
20260508011539 47 285 1.0 4.0 0.00 0.13 0.03 68 1014.2
20260508010038 47 255 1.0 5.0 0.00 0.13 0.03 67 1014.0
20260508004540 48 254 1.0 7.0 0.00 0.14 0.03 66 1014.0
20260508003038 48 287 2.0 7.0 0.00 0.14 0.03 66 1013.8
20260508001539 49 257 5.0 9.0 0.00 0.14 0.03 64 1013.6
20260508000036 50 287 3.0 9.0 0.00 0.14 0.03 64 1013.5
20260507234537 50 267 2.0 10.0 0.00 0.16 0.03 63 1013.5
20260507233038 51 258 7.0 13.0 0.00 0.16 0.03 62 1013.4
20260507231551 52 306 7.0 16.0 0.00 0.16 0.03 61 1013.2
20260507230037 51 297 8.0 13.0 0.00 0.16 0.03 61 1013.3
20260507224540 51 272 6.0 11.0 0.00 0.16 0.03 65 1013.2
20260507223038 51 318 6.0 14.0 0.00 0.16 0.03 64 1013.0
20260507221537 52 321 8.0 17.0 0.00 0.16 0.03 64 1012.8
20260507220038 53 314 5.0 11.0 0.00 0.16 0.03 63 1012.6
20260507214545 53 286 9.0 15.0 0.00 0.17 0.03 63 1012.5
20260507213035 52 272 8.0 13.0 0.00 0.17 0.03 66 1012.6
20260507211538 52 293 5.0 14.0 0.00 0.17 0.03 67 1012.3
20260507210049 51 304 7.0 14.0 0.00 0.17 0.03 68 1012.3
20260507204538 52 283 6.0 14.0 0.00 0.18 0.03 68 1012.2
20260507203047 51 285 7.0 15.0 0.00 0.18 0.03 68 1012.3
20260507201543 51 263 4.0 11.0 0.00 0.18 0.03 68 1012.3
20260507200037 51 314 6.0 12.0 0.00 0.18 0.03 70 1012.5
20260507194608 50 275 6.0 13.0 0.00 0.18 0.03 71 1012.8
20260507193038 51 236 6.0 13.0 0.00 0.18 0.03 71 1012.6
20260507191542 50 278 5.0 15.0 0.00 0.18 0.03 71 1012.9
20260507190037 51 303 6.0 14.0 0.00 0.18 0.03 71 1012.9
20260507184540 51 267 5.0 14.0 0.00 0.18 0.03 70 1013.2
20260507183041 51 263 6.0 15.0 0.00 0.18 0.03 69 1013.2
20260507181539 51 313 6.0 18.0 0.00 0.18 0.03 68 1013.0
20260507180040 52 216 7.0 13.0 0.00 0.18 0.03 66 1012.9
20260507174543 50 5 6.0 13.0 0.00 0.18 0.03 69 1013.2
20260507173039 49 293 6.0 12.0 0.00 0.18 0.03 68 1013.3
20260507171547 50 318 5.0 11.0 0.00 0.18 0.03 68 1013.3
20260507170043 49 265 5.0 10.0 0.00 0.18 0.03 70 1013.4
20260507164538 49 271 5.0 10.0 0.00 0.21 0.03 72 1013.5
20260507163037 49 292 9.0 14.0 0.00 0.21 0.03 71 1013.5
20260507161540 50 42 1.0 9.0 0.00 0.21 0.03 74 1013.6
20260507160037 48 351 2.0 9.0 0.00 0.21 0.03 78 1013.7
20260507154537 48 321 2.0 9.0 0.00 0.24 0.03 77 1013.6
20260507153043 47 342 4.0 10.0 0.00 0.24 0.03 77 1013.8
20260507151539 47 312 1.0 6.0 0.00 0.24 0.03 79 1013.8
20260507150038 46 335 6.0 12.0 0.00 0.24 0.03 78 1013.9
20260507144537 46 301 4.0 10.0 0.00 0.26 0.03 81 1013.9
20260507143038 45 44 4.0 11.0 0.00 0.26 0.03 87 1013.8
20260507141544 43 33 1.0 9.0 0.00 0.26 0.03 92 1014.0
20260507140040 43 331 2.0 9.0 0.00 0.26 0.03 92 1014.0
20260507134539 43 10 3.0 9.0 0.00 0.27 0.03 93 1014.0
20260507133038 43 0 2.0 7.0 0.00 0.27 0.03 93 1014.3
20260507131605 43 315 1.0 4.0 0.00 0.27 0.03 93 1014.2
20260507130040 43 66 1.0 4.0 0.00 0.27 0.03 93 1014.4
20260507124544 43 321 1.0 6.0 0.00 0.41 0.03 94 1014.4
20260507123043 42 300 1.0 6.0 0.00 0.41 0.03 94 1014.6
20260507121539 42 0 0.0 4.0 0.00 0.41 0.03 93 1014.5
20260507120039 43 341 2.0 5.0 0.00 0.41 0.03 93 1014.1
20260507114540 43 43 0.0 7.0 0.00 0.48 0.03 93 1014.1
20260507113035 43 314 1.0 5.0 0.00 0.48 0.03 94 1014.1